Regional Weather Roundup
Issued by NWS Charleston, SC

Current Version | Previous Version | Text Only | Print | Product List | Glossary Off
Versions: 1 2 3 4 5 6 7 8 9 10 11 12 13 14 15 16 17 18 19 20 21 22 23 24 25 26 27 28 29 30 31 32 33 34 35 36 37 38 39 40 41 42 43 44 45 46 47 48 49 50
000 ASUS42 KCHS 261427 RWRCHS REGIONAL WEATHER ROUNDUP NATIONAL WEATHER SERVICE CHARLESTON SC 1000 AM EDT SUN MAR 26 2017 NOTE: "FAIR" INDICATES FEW OR NO CLOUDS BELOW 12,000 FEET WITH NO SIGNIFICANT WEATHER AND/OR OBSTRUCTIONS TO VISIBILITY. NOT ALL STATIONS ARE QUALITY CONTROLLED. USE DATA WITH CAUTION... ESPECIALLY DEWPOINT OBSERVATIONS. SCZ027-030-031-034>040-042>050-261500- ...SOUTHEAST SOUTH CAROLINA... CITY SKY/WX TMP DP RH WIND PRES REMARKS N CHARLESTON MOSUNNY 72 56 57 S9 30.21R WATERFRONT PRK N/A 68 61 78 VRB3 30.19R JOHNS ISLAND FAIR 73 57 56 SE7 30.22R PINOPOLIS N/A 64 59 82 CALM 30.12R MONCKS CORNER FAIR 70 55 60 S7 30.21S SUMMERVILLE FAIR 70 55 60 S3 30.22S BEAUFORT MCAS MOSUNNY 71 62 73 SE7 30.20R BEAUFORT ARPT FAIR 72 59 64 S6 30.20R HILTON HEAD IS SUNNY 68 61 77 SE6 30.20R WALTERBORO MOSUNNY 70 57 64 S6 30.22R ALLENDALE CLOUDY 66 59 77 SE7 30.20S ...SOUTHERN MIDLANDS AND PEE DEE... CITY SKY/WX TMP DP RH WIND PRES REMARKS GEORGETOWN FAIR 72 52 49 S10 30.24R KINGSTREE CLOUDY 70 54 56 SE7 30.23R ORANGEBURG PTSUNNY 67 57 70 S6 30.21R BARNWELL FAIR 66 59 77 SE7 30.21R AIKEN FAIR 64 55 72 S12 30.23R MANNING FAIR 70 55 60 S3 30.22R COLUMBIA CLOUDY 62 56 80 E6 30.20R SUMTER MOSUNNY 67 56 67 SE7 30.20R FLORENCE CLOUDY 68 56 65 S8 30.23R MYRTLE BEACH MOSUNNY 70 54 56 S12 30.23S N MYRTLE BEACH MOSUNNY 68 55 63 SE7 30.23R $$ GAZ063-065-086>088-099>101-113>116-118-119-134>141-150-261500- ...SOUTHEAST GEORGIA... CITY SKY/WX TMP DP RH WIND PRES REMARKS SAVANNAH ARPT PTSUNNY 73 59 61 S8 30.19R HUNTER AAF SUNNY 73 63 69 S10G21 30.16R FORT STEWART PTSUNNY 70 60 70 S6 30.17R STATESBORO MOSUNNY 71 63 74 S8 30.20S SYLVANIA CLOUDY N/A N/A N/A S3 30.21S CLAXTON FAIR N/A N/A N/A CALM 30.19S ...CSRA...CENTRAL AND FAR SOUTHEAST GEORGIA... CITY SKY/WX TMP DP RH WIND PRES REMARKS THOMSON CLOUDY 63 57 82 SW3 30.23R AUGUSTA-BUSH CLOUDY 66 59 78 S5 30.18S AUGUSTA-DANIEL CLOUDY 64 55 72 S6 30.19R SWAINSBORO PTSUNNY 70 61 73 S9 30.19S VIDALIA PTSUNNY 70 61 73 S9 30.19R EASTMAN FAIR 70 53 54 S7 30.20R HAZLEHURST FAIR 73 64 74 S8 30.17R ALMA MOSUNNY 69 62 78 S6 30.17R WAYCROSS MOSUNNY 75 65 73 S7 30.18R JESUP FAIR 72 59 64 S5 30.19S BAXLEY FAIR 72 64 78 SW8 30.18R BRUNSWICK MOSUNNY 73 64 73 S7 30.20R SAINT SIMONS SUNNY 71 62 73 SE9 30.18R $$ SCZ027-028-034-036>038-045-046-048>050-GAZ119-141-261500- ...LAKE AND SUPPLEMENTAL COASTAL OBSERVATIONS... STATION/POSITION TIME TEMP WIND PRES WAVE SWELL AIR SEA DIR/SP/G HT/PER HT/PER/DIR (UTC) (F) (DEG/KT/KT) (MB) (FT/S) (FT/S/D) WINYAH BAY 1345 66 150/ 5 1023.0S LAKE MURRAY 1330 60 140/ 3/ 4 1022.4R ACE BASIN NERRS 1345 71 120/ 3 1022.0S FORT PULASKI 1400 71 62 170/ 7/ 14 1022.7 SAPELO ISLAND 1400 73 140/ 8 1022.0 $$ ANZ835-935-AMZ111-154-330-350-352-354-370-450-454-472-261500- ...C-MAN AND BUOY OBSERVATIONS... STATION/POSITION TIME TEMP WIND PRES WAVE SWELL AIR SEA DIR/SP/G HT/PER HT/PER/DIR (UTC) (F) (DEG/KT/KT) (MB) (FT/S) (FT/S/D) BUOY 41004 1350 72 72 150/ 14/ 16 1022.2F 5/ 6 3/130/ 9 BUOY 41008 1350 66 62 200/ 2/ 4 1022.0R 4/ 9 3/120/ 9 FOLLY BEACH CMAN 1400 64 110/ 3/ 3 1023.6R CAPERS NEARSHORE 1308 63 130/ 4/ 8 1022.5R FRIPP NEARSHORE 1408 64 61 120/ 6/ 8 1022.3R STATION/POSITION TIME TEMP WIND PRES WAVE SWELL AIR SEA DIR/SP/G HT/PER HT/PER/DIR (UTC) (F) (DEG/KT/KT) (MB) (FT/S) (FT/S/D) 5E ST. MARYS GA 1400 65 N/A 4/ 9 2/100/11 FRYING PAN BUOY 1410 71 74 140/ 14/ 16 1024.2 BUOY 41025 1350 69 75 170/ 12/ 14 1025.9R 3/ 8 2/160/ 8 CAPE LOOKOUT NC 1400 67 160/ 5/ 6 1024.9R BUOY 41002 1350 67 72 80/ 10/ 14 1025.3R 5/ 9 5/130/ 9 BUOY 41010 NOT AVBL ST AUGUSTINE FL 1400 69 67 130/ 2/ 3 1022.8R $$

USA.gov is the U.S. government's official web portal to all federal, state and local government web resources and services.